Starlink 2533

operational
NORAD ID: 48294 Int'l Des: 2021-036 Owner: SPXS Country: US Constellation: starlink
LEOCIRCULARSTARLINK_TYPE

Über Starlink 2533

Beschreibung wird geladen...

Live-Position

3D-Globus wird geladen...

Nächste Überflüge

Höhenverlauf

Altitude vs Time

uPlot chart will show altitude changes over time

Zweizeiliger Elementsatz

1 48294U 21036U 25306.23826749 .00002092 00000-0 15930-3 0 9990
2 48294 53.0544 293.7728 0001611 90.6419 269.4754 15.06400947249105
Epoch: 2. Nov. 2025 • Age: 19 hours

Aktueller Status

Höhe 555.6 km
Geschwindigkeit 7.58 km/s
Subsatellitenpunkt -26.44°S, 144.3°W
Startdatum 29. Apr. 2021
Alter 4.5 years
Typ internet

Technische Details

Klassifizierung Payload
Masse 260.00 kg
Trockenmasse 248.00 kg
Gesamtmasse 260.00 kg
Länge 0.20 m
Durchmesser 2.80 m
Spannweite 9.00 m
Form Box + pan
Hersteller SPXS
Bus-Typ Starlink
Phasenstatus In Orbit
Besitzer/Staat SPXS/US

Große Konstellationen

Loading constellations...